{"data":{"norad_id":63699,"intl_designator":"2025-087C","name":"STARLINK-33919","alt_names":[],"object_type":"PAYLOAD","status":"ACTIVE","operator":null,"country":"US","launch_date":"2025-04-28","launch_site_code":"AFWTR","launch_vehicle":null,"mission":null,"orbit_class":"UNKNOWN","rcs_meters":null,"size_class":null,"mass_kg":null,"dimensions":null,"purposes":["comms"],"wikipedia_slug":null,"has_3d_model":false,"image_url":null,"decayed_at":null,"tle_current":{"epoch":"2026-09-20T13:06:42.800544Z","epoch_age_seconds":148639,"freshness":"FRESH","line1":"1 63699U 25087C   26263.54632871  .00015130  00000+0  45793-3 0  9990","line2":"2 63699  53.1606  33.7219 0001209  83.6331 276.4809 15.34406403 79043","mean_motion":15.34406403,"eccentricity":0.0001209,"inclination_deg":53.1606,"raan_deg":33.7219,"arg_perigee_deg":83.6331,"mean_anomaly_deg":276.4809,"bstar":0.00045793,"rev_number":7904,"period_min":93.847366459406,"perigee_km":461.85715392372,"apogee_km":463.51126449211,"semimajor_km":6840.8212092079,"source":"CELESTRAK","updated_at":"2026-09-21T09:00:35.062358Z"}}}